Weather History for TNCM - February, 2013

Change the Weather History Date:

Thursday, February 7, 2013

  Actual Average Record
Temperature  
Mean Temperature 79 °F -  
Max Temperature 83 °F 81 °F 84 °F (1998)
Min Temperature 75 °F 72 °F 71 °F (1999)
Cooling Degree Days 14    
Growing Degree Days 29 (Base 50)    
Moisture  
Dew Point 69 °F    
Average Humidity 69    
Maximum Humidity 78    
Minimum Humidity 53    
Precipitation  
Precipitation 0.00 in 0.06 in - ()
Sea Level Pressure  
Sea Level Pressure 29.98 in    
Wind  
Wind Speed 7 mph ()    
Max Wind Speed 16 mph    
Max Gust Speed -    
Visibility 6.2 miles    
Events Rain    
Averages and records for this station are not official NWS values.
T = Trace of Precipitation, MM = Missing Value Source: Averaged Metar Reports

Daily Weather History Graph

Daily Weather History Graph

Search for Another Location

Airport or City:

Trip Planner

Search our weather history database for the weather conditions in past years. The results will help you decide how hot, cold, wet, or windy it might be!

Date:

Astronomy

Feb. 07, 2013 Rise Set
Actual Time 6:43 AM AST 6:10 PM AST
Civil Twilight 6:20 AM AST 6:32 PM AST
Nautical Twilight 5:54 AM AST 6:58 PM AST
Astronomical Twilight 5:29 AM AST 7:24 PM AST
Moon 4:05 AM AST (2/7) 3:40 PM AST (2/7)
Length of Visible Light 12h 11m
Length of Day
11h 26m
Waning Crescent, 9% of the Moon is Illuminated
Feb 7
Waning Crescent
Feb 10
New
Feb 17
First Quarter
Feb 25
Full
Mar 4
Last Quarter

Hourly Weather History & Observations

Time (AST) Temp. Heat Index Dew Point Humidity Pressure Visibility Wind Dir Wind Speed Gust Speed Precip Events Conditions
12:00 AM 77.0 °F - 68.0 °F 74% 30.01 in 6.2 mi East 5.8 mph - N/A   Scattered Clouds
1:00 AM 77.0 °F - 68.0 °F 74% 29.98 in 6.2 mi East 6.9 mph - N/A   Partly Cloudy
2:00 AM 77 °F - 68 °F 68% 29.99 in 22 mi East 8.1 mph - - Rain Light Rain Showers
2:00 AM 77.0 °F - 68.0 °F 74% 29.98 in 6.2 mi East 8.1 mph - N/A   Scattered Clouds
3:00 AM 77.0 °F - 68.0 °F 74% 29.95 in 6.2 mi East 6.9 mph - N/A   Scattered Clouds
4:00 AM 77.0 °F - 68.0 °F 74% 29.95 in 6.2 mi ESE 5.8 mph - N/A   Scattered Clouds
5:00 AM 76 °F - 69 °F 72% 29.96 in 22 mi ESE 5.8 mph - -   Partly Cloudy
5:00 AM 77.0 °F - 68.0 °F 74% 29.95 in 6.2 mi East 5.8 mph - N/A   Scattered Clouds
6:00 AM 77.0 °F - 69.8 °F 78% 29.98 in 6.2 mi ESE 4.6 mph - N/A   Partly Cloudy
7:00 AM 77.0 °F - 68.0 °F 74% 29.98 in 6.2 mi ESE 6.9 mph - N/A   Partly Cloudy
8:00 AM 78 °F - 69 °F 66% 30.01 in 31 mi ESE 9.2 mph - -   Partly Cloudy
8:00 AM 78.8 °F - 69.8 °F 74% 30.01 in 6.2 mi ESE 9.2 mph - N/A   Scattered Clouds
9:00 AM 80.6 °F 83.9 °F 69.8 °F 70% 30.01 in 6.2 mi ESE 6.9 mph - N/A   Scattered Clouds
10:00 AM 80.6 °F 83.9 °F 69.8 °F 70% 30.01 in 6.2 mi ESE 8.1 mph - N/A   Mostly Cloudy
11:00 AM 81 °F - 69 °F 59% 30.01 in 31 mi ESE 10.4 mph - -   Partly Cloudy
11:00 AM 80.6 °F 83.9 °F 69.8 °F 70% 30.01 in 6.2 mi ESE 10.4 mph - N/A   Scattered Clouds
12:00 PM 82.4 °F 86.3 °F 69.8 °F 66% 29.98 in 6.2 mi ESE 10.4 mph - N/A   Scattered Clouds
1:00 PM 82.4 °F 84.6 °F 66.2 °F 58% 29.95 in 6.2 mi ESE 9.2 mph - N/A   Scattered Clouds
2:00 PM 83 °F - 69 °F 53% 29.96 in 28 mi SE 8.1 mph - -   Mostly Cloudy
2:00 PM 82.4 °F 85.4 °F 68.0 °F 62% 29.95 in 6.2 mi ESE 9.2 mph - N/A   Mostly Cloudy
3:00 PM 82.4 °F 85.4 °F 68.0 °F 62% 29.92 in 6.2 mi East 9.2 mph - N/A   Mostly Cloudy
4:00 PM 82.4 °F 86.3 °F 69.8 °F 66% 29.92 in 6.2 mi ESE 10.4 mph - N/A   Mostly Cloudy
5:00 PM 81 °F - 70 °F 61% 29.96 in 25 mi East 11.5 mph - -   Scattered Clouds
5:00 PM 80.6 °F 83.9 °F 69.8 °F 70% 29.95 in 6.2 mi ESE 11.5 mph - N/A   Partly Cloudy
6:00 PM 78.8 °F - 69.8 °F 74% 29.95 in 6.2 mi East 10.4 mph - N/A   Scattered Clouds
7:00 PM 77.0 °F - 68.0 °F 74% 29.95 in 6.2 mi ESE 10.4 mph - N/A   Mostly Cloudy
8:00 PM 77 °F - 68 °F 67% 29.99 in 22 mi East 12.7 mph - -   Mostly Cloudy
8:00 PM 77.0 °F - 68.0 °F 74% 29.98 in 6.2 mi East 12.7 mph - N/A   Mostly Cloudy
9:00 PM 77.0 °F - 69.8 °F 78% 30.01 in 6.2 mi East 16.1 mph - N/A   Mostly Cloudy
10:00 PM 77.0 °F - 69.8 °F 78% 30.01 in 6.2 mi East 11.5 mph - N/A   Mostly Cloudy
11:00 PM 78 °F - 68 °F 65% 30.01 in 22 mi East 6.9 mph - -   Mostly Cloudy
11:00 PM 78.8 °F - 68.0 °F 69% 30.01 in 6.2 mi East 6.9 mph - N/A   Mostly Cloudy